Weather History for Atwater, CA

Change the Weather History Date:

Tuesday, October 8, 2013

  Actual Average (KMCE) Record (KMCE)
Temperature  
Mean Temperature 62 °F 66 °F  
Max Temperature 77 °F 82 °F 93 °F (2002)
Min Temperature 48 °F 51 °F 43 °F (2009)
Degree Days  
Heating Degree Days 2    
Month to date heating degree days  
Since 1 July heating degree days  
Cooling Degree Days 0    
Month to date cooling degree days  
Year to date cooling degree days  
Growing Degree Days 12 (Base 50)    
Moisture  
Dew Point 38 °F    
Average Humidity 48    
Maximum Humidity 72    
Minimum Humidity 22    
Precipitation  
Precipitation 0.00 in 0.01 in 0.29 in (1973)
Month to date precipitation 0.08  
Year to date precipitation 9.07  
Since 1 July precipitation 0.39  
Snow  
Snow 0.00 in - - ()
Month to date snowfall  
Since 1 July snowfall  
Since 1 September snowfall  
Snow Depth -    
Sea Level Pressure  
Sea Level Pressure 29.81 in    
Wind  
Wind Speed 4 mph (NNW)    
Max Wind Speed 13 mph    
Max Gust Speed 16 mph    
Visibility 10 miles    
Events      
T = Trace of Precipitation, MM = Missing Value Source: NWS Daily Summary

Daily Weather History Graph

Daily Weather History Graph

Search for Another Location

Airport:

Trip Planner

Search our weather history database for the weather conditions in past years. The results will help you decide how hot, cold, wet, or windy it might be!

Date:

Astronomy

Oct. 08, 2013 Rise Set
Actual Time 7:04 AM PDT 6:34 PM PDT
Civil Twilight 6:38 AM PDT 7:00 PM PDT
Nautical Twilight 6:07 AM PDT 7:30 PM PDT
Astronomical Twilight 5:37 AM PDT 8:01 PM PDT
Moon 10:59 AM PDT (10/8) 9:20 PM PDT (10/8)
Length of Visible Light 12h 22m
Length of Day
11h 30m
Waxing Crescent, 17% of the Moon is Illuminated
Oct 8
Waxing Crescent
Oct 11
First Quarter
Oct 18
Full
Oct 26
Last Quarter
Nov 3
New

Hourly Weather History & Observations

Time (PDT) Temp. Dew Point Humidity Pressure Visibility Wind Dir Wind Speed Gust Speed Precip Events Conditions
12:15 AM 55.4 °F 35.6 °F 47% 29.87 in 10.0 mi NNE 4.6 mph - N/A   Clear
12:35 AM 59.0 °F 33.8 °F 39% 29.86 in 10.0 mi North - - N/A   Clear
12:55 AM 59.0 °F 35.6 °F 42% 29.86 in 10.0 mi North - - N/A   Clear
1:15 AM 57.2 °F 35.6 °F 44% 29.86 in 10.0 mi North - - N/A   Clear
1:35 AM 60.8 °F 33.8 °F 36% 29.86 in 10.0 mi North - - N/A   Clear
1:55 AM 57.2 °F 35.6 °F 44% 29.86 in 10.0 mi Calm Calm - N/A   Clear
2:15 AM 57.2 °F 33.8 °F 41% 29.86 in 10.0 mi Calm Calm - N/A   Clear
2:35 AM 53.6 °F 37.4 °F 54% 29.85 in 10.0 mi Calm Calm - N/A   Clear
2:55 AM 53.6 °F 35.6 °F 51% 29.85 in 10.0 mi Calm Calm - N/A   Clear
3:15 AM 51.8 °F 33.8 °F 50% 29.85 in 10.0 mi NNW 3.5 mph - N/A   Clear
3:35 AM 50.0 °F 35.6 °F 58% 29.84 in 10.0 mi Calm Calm - N/A   Clear
3:55 AM 51.8 °F 35.6 °F 54% 29.85 in 10.0 mi North 4.6 mph - N/A   Clear
4:15 AM 51.8 °F 37.4 °F 58% 29.85 in 10.0 mi North 5.8 mph - N/A   Clear
4:35 AM 50.0 °F 35.6 °F 58% 29.85 in 10.0 mi North 3.5 mph - N/A   Clear
4:55 AM 48.2 °F 37.4 °F 66% 29.85 in 10.0 mi North 4.6 mph - N/A   Clear
5:15 AM 48.2 °F 35.6 °F 62% 29.85 in 10.0 mi North 3.5 mph - N/A   Clear
5:35 AM 50.0 °F 37.4 °F 62% 29.85 in 10.0 mi North - - N/A   Clear
5:55 AM 48.2 °F 35.6 °F 62% 29.86 in 10.0 mi Calm Calm - N/A   Clear
6:15 AM 48.2 °F 35.6 °F 62% 29.86 in 10.0 mi North 4.6 mph - N/A   Clear
6:35 AM 50.0 °F 37.4 °F 62% 29.86 in 10.0 mi North 6.9 mph - N/A   Clear
6:45 AM 51.8 °F 35.6 °F 54% 29.86 in 10.0 mi Variable 4.6 mph - N/A   Clear
6:55 AM 51.8 °F 37.4 °F 58% 29.86 in 10.0 mi NNE 4.6 mph - N/A   Clear
7:45 AM 53.6 °F 39.2 °F 58% 29.87 in 10.0 mi North 5.8 mph - N/A   Clear
8:45 AM 60.8 °F 39.2 °F 45% 29.88 in 10.0 mi NNW 12.7 mph 16.1 mph N/A   Clear
9:45 AM 64.4 °F 41.0 °F 42% 29.88 in 10.0 mi NNW 11.5 mph - N/A   Clear
10:45 AM 69.8 °F 37.4 °F 31% 29.88 in 10.0 mi NNW 9.2 mph - N/A   Clear
11:45 AM 73.4 °F 37.4 °F 27% 29.86 in 10.0 mi NNW 9.2 mph - N/A   Clear
12:45 PM 75.2 °F 37.4 °F 25% 29.84 in 10.0 mi North 9.2 mph - N/A   Clear
1:45 PM 75.2 °F 37.4 °F 25% 29.80 in 10.0 mi NNW 11.5 mph - N/A   Scattered Clouds
2:45 PM 77.0 °F 35.6 °F 22% 29.78 in 10.0 mi NNW 12.7 mph - N/A   Mostly Cloudy
3:45 PM 77.0 °F 35.6 °F 22% 29.77 in 10.0 mi NW 12.7 mph - N/A   Mostly Cloudy
4:45 PM 75.2 °F 37.4 °F 25% 29.76 in 10.0 mi North 9.2 mph - N/A   Mostly Cloudy
5:45 PM 73.4 °F 37.4 °F 27% 29.74 in 10.0 mi North 9.2 mph - N/A   Mostly Cloudy
6:45 PM 69.8 °F 39.2 °F 33% 29.72 in 10.0 mi Variable 3.5 mph - N/A   Scattered Clouds
7:45 PM 64.4 °F 39.2 °F 40% 29.70 in 10.0 mi Calm Calm - N/A   Clear
8:45 PM 64.4 °F 41.0 °F 42% 29.71 in 10.0 mi West 9.2 mph - N/A   Clear
9:15 PM 62.6 °F 42.8 °F 48% 29.71 in 10.0 mi WNW 8.1 mph - N/A   Clear
9:35 PM 62.6 °F 44.6 °F 52% 29.70 in 10.0 mi WNW 6.9 mph - N/A   Clear
9:55 PM 62.6 °F 44.6 °F 52% 29.70 in 10.0 mi West 6.9 mph - N/A   Clear
10:15 PM 60.8 °F 46.4 °F 59% 29.70 in 10.0 mi WNW 5.8 mph - N/A   Clear
10:35 PM 60.8 °F 46.4 °F 59% 29.70 in 10.0 mi Calm Calm - N/A   Clear
10:55 PM 57.2 °F 46.4 °F 67% 29.69 in 10.0 mi West 3.5 mph - N/A   Clear
11:15 PM 57.2 °F 46.4 °F 67% 29.69 in 10.0 mi WNW 3.5 mph - N/A   Clear
11:35 PM 55.4 °F 46.4 °F 72% 29.68 in 10.0 mi Calm Calm - N/A   Clear
11:55 PM 55.4 °F 46.4 °F 72% 29.67 in 10.0 mi West 4.6 mph - N/A   Clear